Weather History for KRUG - January, 2013

Change the Weather History Date:

Friday, January 4, 2013

  Actual Average Record
Temperature  
Mean Temperature 11 °F -  
Max Temperature 17 °F 12 °F 39 °F (2012)
Min Temperature 5 °F -5 °F -36 °F (1968)
Degree Days  
Heating Degree Days 54    
Moisture  
Dew Point 6 °F    
Average Humidity 85    
Maximum Humidity 92    
Minimum Humidity 73    
Precipitation  
Precipitation 0.00 in - - ()
Sea Level Pressure  
Sea Level Pressure 30.00 in    
Wind  
Wind Speed 8 mph (SSE)    
Max Wind Speed 14 mph    
Max Gust Speed -    
Visibility 10 miles    
Events      
Averages and records for this station are not official NWS values.
T = Trace of Precipitation, MM = Missing Value Source: NWS Daily Summary

Daily Weather History Graph

Daily Weather History Graph

Search for Another Location

Airport or City:

Trip Planner

Search our weather history database for the weather conditions in past years. The results will help you decide how hot, cold, wet, or windy it might be!

Date:

Astronomy

Jan. 04, 2013 Rise Set
Actual Time 8:31 AM CST 4:59 PM CST
Civil Twilight 7:54 AM CST 5:35 PM CST
Nautical Twilight 7:15 AM CST 6:15 PM CST
Astronomical Twilight 6:37 AM CST 6:53 PM CST
Moon 12:10 AM CST (1/4) 11:37 AM CST (1/4)
Length of Visible Light 9h 41m
Length of Day
8h 28m
Waning Gibbous, 55% of the Moon is Illuminated
Jan 4
Waning Gibbous
Jan 4
Last Quarter
Jan 11
New
Jan 18
First Quarter
Jan 26
Full

Hourly Weather History & Observations

Time (CST) Temp. Windchill Dew Point Humidity Pressure Visibility Wind Dir Wind Speed Gust Speed Precip Events Conditions
12:15 AM 10.4 °F 0.8 °F 6.8 °F 85% 29.97 in 10.0 mi West 5.8 mph - N/A   Clear
12:35 AM 10.4 °F -0.4 °F 6.8 °F 85% 29.97 in 10.0 mi West 6.9 mph - N/A   Clear
12:55 AM 10.4 °F -1.5 °F 6.8 °F 85% 29.96 in 10.0 mi West 8.1 mph - N/A   Clear
1:35 AM 8.6 °F -4.7 °F 6.8 °F 92% 29.97 in 10.0 mi West 9.2 mph - N/A   Clear
1:55 AM 8.6 °F -3.7 °F 5.0 °F 85% 29.97 in 10.0 mi West 8.1 mph - N/A   Clear
2:15 AM 8.6 °F -4.7 °F 6.8 °F 92% 29.97 in 10.0 mi West 9.2 mph - N/A   Clear
2:35 AM 8.6 °F -5.5 °F 5.0 °F 85% 29.97 in 10.0 mi West 10.4 mph - N/A   Clear
2:55 AM 6.8 °F -5.9 °F 5.0 °F 92% 29.98 in 10.0 mi West 8.1 mph - N/A   Clear
3:15 AM 6.8 °F -5.9 °F 5.0 °F 92% 29.98 in 10.0 mi West 8.1 mph - N/A   Clear
5:55 AM 5.0 °F -10.8 °F 3.2 °F 92% 30.01 in 10.0 mi West 11.5 mph - N/A   Clear
6:15 AM 6.8 °F -7.8 °F 3.2 °F 85% 30.01 in 10.0 mi West 10.4 mph - N/A   Clear
6:35 AM 6.8 °F -8.6 °F 3.2 °F 85% 30.01 in 10.0 mi West 11.5 mph - N/A   Clear
7:15 AM 6.8 °F -6.9 °F 5.0 °F 92% 30.02 in 10.0 mi West 9.2 mph - N/A   Clear
7:35 AM 6.8 °F -5.9 °F 5.0 °F 92% 30.02 in 10.0 mi WNW 8.1 mph - N/A   Clear
7:55 AM 8.6 °F -5.5 °F 5.0 °F 85% 30.02 in 10.0 mi WNW 10.4 mph - N/A   Clear
8:15 AM 6.8 °F -5.9 °F 5.0 °F 92% 30.03 in 10.0 mi WNW 8.1 mph - N/A   Clear
8:35 AM 6.8 °F -7.8 °F 5.0 °F 92% 30.03 in 10.0 mi WNW 10.4 mph - N/A   Clear
8:55 AM 5.0 °F -2.1 °F 1.4 °F 85% 30.03 in 10.0 mi NNW 3.5 mph - N/A   Clear
9:15 AM 5.0 °F -10.0 °F 1.4 °F 85% 30.04 in 10.0 mi West 10.4 mph - N/A   Clear
9:35 AM 5.0 °F -10.0 °F 1.4 °F 85% 30.04 in 10.0 mi West 10.4 mph - N/A   Clear
9:55 AM 6.8 °F -2.0 °F 3.2 °F 85% 30.05 in 10.0 mi West 4.6 mph - N/A   Clear
10:15 AM 6.8 °F - 3.2 °F 85% 30.06 in 10.0 mi Calm Calm - N/A   Clear
10:35 AM 8.6 °F -1.3 °F 5.0 °F 85% 30.07 in 10.0 mi WSW 5.8 mph - N/A   Clear
10:55 AM 10.4 °F 0.8 °F 5.0 °F 79% 30.07 in 10.0 mi West 5.8 mph - N/A   Clear
11:15 AM 12.2 °F 1.7 °F 6.8 °F 79% 30.06 in 10.0 mi West 6.9 mph - N/A   Clear
11:35 AM 14.0 °F 6.5 °F 8.6 °F 79% 30.06 in 10.0 mi NW 4.6 mph - N/A   Clear
11:55 AM 15.8 °F 7.2 °F 8.6 °F 73% 30.05 in 10.0 mi NNW 5.8 mph - N/A   Clear
12:15 PM 15.8 °F 8.6 °F 10.4 °F 79% 30.04 in 10.0 mi NNW 4.6 mph - N/A   Clear
12:35 PM 15.8 °F 7.2 °F 10.4 °F 79% 30.04 in 10.0 mi NNE 5.8 mph - N/A   Clear
12:55 PM 15.8 °F 8.6 °F 10.4 °F 79% 30.03 in 10.0 mi NE 4.6 mph - N/A   Clear
1:15 PM 15.8 °F 10.2 °F 10.4 °F 79% 30.02 in 10.0 mi ENE 3.5 mph - N/A   Clear
1:35 PM 15.8 °F 10.2 °F 10.4 °F 79% 30.01 in 10.0 mi East 3.5 mph - N/A   Clear
1:55 PM 15.8 °F 5.1 °F 10.4 °F 79% 30.01 in 10.0 mi East 8.1 mph - N/A   Clear
2:15 PM 15.8 °F 6.1 °F 10.4 °F 79% 30.01 in 10.0 mi East 6.9 mph - N/A   Clear
2:35 PM 15.8 °F 5.1 °F 10.4 °F 79% 30.00 in 10.0 mi ESE 8.1 mph - N/A   Clear
2:55 PM 17.6 °F 8.2 °F 10.4 °F 73% 29.99 in 10.0 mi ESE 6.9 mph - N/A   Clear
3:15 PM 17.6 °F 12.3 °F 12.2 °F 79% 30.01 in 10.0 mi SE 3.5 mph - N/A   Clear
3:35 PM 15.8 °F 6.1 °F 10.4 °F 79% 30.03 in 10.0 mi SW 6.9 mph - N/A   Clear
3:55 PM 15.8 °F 7.2 °F 10.4 °F 79% 30.04 in 10.0 mi SW 5.8 mph - N/A   Clear
4:15 PM 15.8 °F - 10.4 °F 79% 30.05 in 10.0 mi Calm Calm - N/A   Clear
4:35 PM 10.4 °F 4.0 °F 6.8 °F 85% 30.04 in 10.0 mi ESE 3.5 mph - N/A   Clear
4:55 PM 10.4 °F 0.8 °F 6.8 °F 85% 30.03 in 10.0 mi East 5.8 mph - N/A   Clear
5:15 PM 8.6 °F -1.3 °F 5.0 °F 85% 30.04 in 10.0 mi East 5.8 mph - N/A   Clear
5:35 PM 6.8 °F -5.9 °F 5.0 °F 92% 30.02 in 10.0 mi ESE 8.1 mph - N/A   Clear
5:55 PM 8.6 °F -6.3 °F 5.0 °F 85% 30.00 in 10.0 mi ESE 11.5 mph - N/A   Clear
6:15 PM 8.6 °F -7.7 °F 6.8 °F 92% 29.98 in 10.0 mi ESE 13.8 mph - N/A   Clear
6:35 PM 8.6 °F -4.7 °F 5.0 °F 85% 29.99 in 10.0 mi ESE 9.2 mph - N/A   Clear
6:55 PM 5.0 °F -5.6 °F 1.4 °F 85% 30.01 in 10.0 mi East 5.8 mph - N/A   Clear
7:15 PM 6.8 °F -6.9 °F 3.2 °F 85% 30.00 in 10.0 mi ESE 9.2 mph - N/A   Clear
7:35 PM 6.8 °F -8.6 °F 5.0 °F 92% 29.98 in 10.0 mi ESE 11.5 mph - N/A   Clear
7:55 PM 6.8 °F -8.6 °F 5.0 °F 92% 29.97 in 10.0 mi ESE 11.5 mph - N/A   Clear
8:15 PM 6.8 °F -8.6 °F 5.0 °F 92% 29.98 in 10.0 mi ESE 11.5 mph - N/A   Clear
8:35 PM 5.0 °F -9.1 °F 1.4 °F 85% 29.99 in 10.0 mi East 9.2 mph - N/A   Clear
8:55 PM 5.0 °F -12.3 °F 1.4 °F 85% 29.97 in 10.0 mi East 13.8 mph - N/A   Clear
9:15 PM 6.8 °F -10.0 °F 5.0 °F 92% 29.95 in 10.0 mi ESE 13.8 mph - N/A   Clear
9:35 PM 6.8 °F -8.6 °F 5.0 °F 92% 29.95 in 10.0 mi ESE 11.5 mph - N/A   Clear
9:55 PM 6.8 °F -7.8 °F 3.2 °F 85% 29.94 in 10.0 mi ESE 10.4 mph - N/A   Clear
10:15 PM 6.8 °F -7.8 °F 3.2 °F 85% 29.94 in 10.0 mi ESE 10.4 mph - N/A   Clear
10:35 PM 6.8 °F -8.6 °F 5.0 °F 92% 29.93 in 10.0 mi ESE 11.5 mph - N/A   Clear
10:55 PM 5.0 °F -10.0 °F 3.2 °F 92% 29.93 in 10.0 mi ESE 10.4 mph - N/A   Clear
11:15 PM 5.0 °F -10.0 °F 3.2 °F 92% 29.93 in 10.0 mi ESE 10.4 mph - N/A   Clear
11:35 PM 5.0 °F -9.1 °F 1.4 °F 85% 29.94 in 10.0 mi ESE 9.2 mph - N/A   Clear
11:55 PM 5.0 °F -10.8 °F 1.4 °F 85% 29.92 in 10.0 mi ESE 11.5 mph - N/A   Clear